Location: Strada George Coșbuc
(47.6577°N, 23.5639°E)
Time: 19:08:57
(UTC+03:00)

ISS - Pass Details

Date: 15 October 2017
Orbit: 401 x 408 km, 51.6° (Epoch: 21 October)

Event Time Altitude Azimuth Distance (km) Brightness Sun altitude
Rises 19:23:26 0° 290° (WNW) 2,324 1.4 -8.5°
Reaches altitude 10° 19:25:40 10° 279° (W) 1,463 0.5 -8.8°
Maximum altitude 19:28:34 29° 217° (SW) 771 -2.0 -9.3°
Drops below altitude 10° 19:31:27 10° 155° (SSE) 1,459 -1.2 -9.8°
Enters shadow 19:33:19 - 145° (SE) 2,178 -0.4 -10.1°
